Location: Poprad
(0.0000°N, 20.3000°E)
Time: 13:34:14
(UTC+02:00)

Daily predictions for brighter satellites

Satellite Brightness Start Highest point End
(mag) Time Altitude Azimuth Time Altitude Azimuth Time Altitude Azimuth
H-10 deb 3.9 18:52:34 10° WSW 18:56:59 80° S 19:30:44 10° E
H-10 deb 3.9 18:52:34 10° WSW 18:57:00 80° S 19:30:44 10° E
Cosmos 468 Rocket 4.2 18:54:45 10° N 18:59:52 56° ENE 19:05:02 10° SSE
Okean O Rocket 1.6 18:59:19 10° SSE 19:03:47 84° ENE 19:08:13 10° N
Ariane H10-3 3.4 19:01:24 10° NW 19:04:07 36° NNE 19:12:31 10° E
Spelda 2.4 19:02:02 10° W 19:04:41 82° N 19:11:00 10° E
Sakura Rocket 2.9 19:02:20 10° SW 19:06:03 58° SSE 19:10:36 10° ENE
Cosmos 1689 Rocket 2.9 19:04:22 10° NE 19:06:46 26° ESE 19:09:10 10° SSE
Okean 3 Rocket 4.3 19:03:36 10° NNE 19:07:29 32° E 19:11:25 10° SSE
Lacrosse 5 rocket 1.7 19:03:03 10° NNW 19:07:30 62° ENE 19:12:04 10° SE
Cosmos 1503 Rocket 4.1 19:03:44 10° S 19:08:46 54° ESE 19:13:46 10° NNE
YAOGAN 1 4.0 19:07:40 10° ESE 19:10:40 19° ENE 19:13:40 10° NE
CZ-4B R/B 3.5 19:08:19 10° NNW 19:10:59 29° WNW 19:13:40 10° SW
H-2A R/B 2.6 19:07:03 10° SE 19:11:29 34° ENE 19:15:54 10° NNE
Cosmos 1939 Rocket 4.0 19:08:21 10° S 19:12:20 48° WSW 19:16:18 10° NNW
Okean-O 4.2 19:15:08 12° ESE 19:17:30 17° ENE 19:20:24 10° NE
Meteor 2-15 Rocket 4.4 19:12:25 10° S 19:18:29 76° E 19:24:31 10° N
Skynet4D Del rocket 3.5 19:14:06 10° WSW 19:19:27 78° SSE 19:25:01 10° ENE
DMSP B5D2-2 4.2 19:14:35 10° NNE 19:19:43 54° ESE 19:24:51 10° S
CZ-2C R/B 3.5 19:15:17 10° S 19:19:58 59° WSW 19:24:48 10° NNW
Cosmos 540 Rocket 3.9 19:15:43 10° N 19:20:27 40° ENE 19:25:14 10° SSE
USA 229 DEB 4.3 19:13:21 10° N 19:20:43 46° ENE 19:27:58 11° SE
USA 229 4.4 19:13:27 10° N 19:20:49 46° ENE 19:28:00 11° SE
Cosmos 1766 Rocket 3.7 19:17:48 10° N 19:22:09 56° E 19:26:32 10° SSE
H-2A R/B 3.3 19:19:06 10° S 19:22:50 48° WSW 19:26:38 10° NNW
Feng Yun 1-1 Rocket 4.2 19:22:38 10° SSE 19:28:07 65° ENE 19:33:27 10° N
Meteor 2-3 Rocket 4.2 19:22:54 10° NNW 19:28:23 63° W 19:33:54 10° S
Cosmos 1553 Rocket 3.9 19:26:15 10° S 19:32:14 60° E 19:38:13 10° NNE
ISS -1.4 19:30:01 10° WSW 19:32:54 27° NW 19:35:47 10° N
CZ-2C R/B 3.3 19:29:32 10° W 19:33:13 28° NW 19:36:43 10° NNE
ARIANE 5 R/B 1.9 19:27:48 10° W 19:33:36 84° N 19:34:47 27° E
Ariane H10 2.1 19:33:27 10° W 19:35:59 43° S 19:36:50 30° SE
Cosmos 921 Rocket 3.5 19:32:38 10° NNE 19:36:25 35° E 19:38:07 24° SE
SJ-11-01 4.3 19:33:40 10° SSE 19:38:18 57° ENE 19:42:54 10° N
NOSS 3-1 (A) 4.4 19:31:22 10° NNW 19:40:09 64° ENE 19:47:59 14° SE
Cosmos 1354 Rocket 4.3 19:38:29 10° SSW 19:43:40 69° WNW 19:48:51 10° N
CZ-2C R/B 4.3 19:39:29 10° NNW 19:44:34 37° WNW 19:49:43 10° SW
Cosmos 1603 3.7 19:39:12 10° N 19:44:42 61° ENE 19:48:40 19° SSE
Cosmos 2278 Rocket 2.4 19:39:58 10° S 19:45:22 46° ESE 19:50:45 10° NNE
Cosmos 1437 Rocket 3.1 19:42:46 10° SSW 19:46:31 62° W 19:50:18 10° N
Cosmos 1417 Rocket 4.4 19:40:53 10° S 19:47:08 69° E 19:53:17 10° N
Cosmos 1814 Rocket 4.3 19:42:45 10° N 19:47:32 42° ENE 19:49:26 30° SE
Cosmos 1606 3.7 19:47:09 10° SSW 19:50:45 45° W 19:54:21 10° NNW
Cosmos 1570 Rocket 4.2 19:47:13 10° N 19:52:15 50° ENE 19:54:21 31° SE
Centaur AC-119 1.7 19:51:06 10° WNW 19:53:17 82° NNE 19:53:59 52° ESE
ATLAS 5 CENTAUR R/B 3.8 19:49:17 10° NNW 19:54:13 80° ENE 20:15:54 10° SSE
ERS-2 2.5 19:53:26 10° N 19:57:01 64° WNW 20:00:36 10° SSW
FALCON 9 DEB 3.1 19:54:24 10° NW 19:57:49 76° WSW 19:58:18 60° S
CSL-04 Rocket 4.1 19:58:55 35° E 19:59:21 36° ENE 20:04:08 10° NNE
Ariane H10 3.3 19:56:58 10° W 20:00:04 63° S 20:01:34 40° ESE
Cosmos 1408 Rocket 3.4 19:55:59 10° N 20:00:26 81° E 20:02:44 28° S
Nadezhda 2 Rocket 4.5 19:55:17 10° N 20:01:14 57° E 20:04:38 26° SSE
Meteosat 1 Rocket2 2.9 20:03:15 10° WSW 20:06:51 67° NNW 20:07:45 47° NNE
CZ-4 R/B 2.3 20:04:35 13° S 20:08:03 48° WSW 20:12:01 10° NNW
Ariane 3 Deb 4.2 19:46:44 10° W 20:09:55 62° NNW 20:12:36 31° ENE
Intercosmos 24 4.2 20:06:36 10° S 20:12:20 88° W 20:16:23 10° N
Cosmos 1943 3.5 20:10:21 10° NNW 20:15:56 64° WSW 20:19:12 25° S
Cosmos 1933 3.5 20:15:50 50° SSW 20:16:45 71° W 20:20:45 10° N
Cosmos 1862 3.8 20:15:38 10° NNW 20:19:36 57° W 20:20:17 49° SW
GPS 2-15 Rocket1 3.9 20:18:42 10° SW 20:22:23 41° SSW 20:22:23 41° SSW
Cosmos 883 Rocket 4.4 20:35:05 44° S 20:37:14 87° W 20:43:32 10° N
Centaur AC-64 3.9 20:35:29 10° WNW 20:38:55 32° WNW 20:38:55 32° WNW
Centaur D AC-28 4.2 20:38:17 10° SW 20:44:02 24° SSW 20:44:02 24° SSW
CZ-3B R/B 3.5 20:29:26 10° WSW 20:46:03 69° SSE 20:46:56 65° SE
ARIANE 5 R/B 3.2 20:35:16 10° W 20:56:16 80° WNW 20:56:16 80° WNW
